#timestamp,LO_Frequency,Hit 
1504090815.7,286047002.9,N
1504090835.5,286047001.5,N
1504090855.4,286047001.7,N
1504090875.2,286046997.2,N
1504090895.0,286046994.7,N
1504090895.9,286046994.7,N
1504090915.8,286046995.3,N
1504090935.6,286046996.4,N
1504090955.4,286046992.9,N
1504090975.3,286046990.0,N
1504090995.1,286046990.3,N
1504090996.0,286046990.3,N
1504091015.8,286046988.8,N
1504091035.7,286046992.3,N
1504091055.5,286046997.8,N
1504091075.3,286046994.9,N
1504091095.1,286046996.0,N
1504091115.9,286046995.1,N
1504091135.7,286047000.6,N
1504091155.5,286047001.8,N
1504091175.4,286047000.3,N
1504091195.2,286047000.4,N
1504091215.0,286046997.2,N
1504091215.9,286046997.2,N
1504091235.8,286046996.3,N
1504091255.6,286046997.5,N
1504091275.4,286046993.4,N
1504091295.3,286046992.6,N
1504091315.1,286046990.2,N
1504091316.0,286046990.2,N
1504091335.8,286046992.6,N
1504091355.7,286046991.8,N
1504091375.5,286046992.3,N
1504091395.3,286046992.7,N
1504091415.2,286046993.4,N
1504091435.9,286046997.3,N
1504091455.7,286047002.4,N
1504091475.5,286047004.3,N
1504091495.4,286047006.8,N
1504091515.2,286047005.5,N
1504091535.0,286047003.8,N
1504091535.9,286047003.8,N
1504091555.8,286047004.5,N
1504091575.6,286047004.7,N
1504091595.4,286047005.4,N
1504091615.3,286047003.3,N
1504091635.1,286047004.7,N
1504091636.0,286047004.7,N
1504091655.8,286047010.6,N
1504091675.7,286047012.1,N
1504091695.5,286047013.5,N
1504091715.3,286047014.9,N
1504091735.2,286047015.4,N
1504091755.9,286047015.0,N
1504091775.7,286047014.1,N
1504091795.5,286047013.7,N
1504091815.4,286047010.5,N
1504091835.2,286047009.2,N
1504091855.0,286047009.2,N
1504091855.9,286047009.2,N
1504091875.8,286047005.1,N
1504091895.6,286047004.3,N
1504091915.4,286047005.6,N
1504091935.3,286047007.0,N
1504091955.1,286047007.6,N
1504091975.8,286047003.4,N
1504091995.7,286047002.0,N
1504092015.5,286046999.9,N
1504092035.3,286046997.1,N
1504092055.2,286046999.3,N
1504092075.9,286046998.1,N
1504092095.7,286046998.5,N
1504092115.6,286047001.1,N
1504092135.4,286046996.2,N
1504092155.2,286046994.2,N
1504092175.0,286046997.8,N
1504092176.0,286046997.8,N
1504092195.8,286046997.6,N
1504092215.6,286046995.9,N
1504092235.4,286046994.8,N
1504092255.3,286046990.5,N
1504092275.1,286046992.9,N
1504092295.8,286046996.2,N
1504092315.7,286046991.7,N
1504092335.5,286046990.1,N
1504092355.3,286046993.0,N
1504092375.2,286046990.3,N
1504092395.9,286046991.0,N
1504092415.7,286046990.6,N
1504092435.6,286046987.6,N
1504092455.4,286046985.5,N
1504092475.2,286046985.7,N
1504092495.1,286046991.5,N
1504092496.0,286046991.5,N
1504092515.8,286046988.8,N
1504092535.6,286046985.5,P
1504092555.5,286046993.2,N
1504092575.3,286046993.0,N
1504092595.1,286046993.6,N
1504092615.9,286046994.8,N
1504092635.7,286046993.8,N
1504092655.5,286046995.2,N
1504092675.3,286046998.1,N
1504092695.2,286047001.6,N
1504092715.0,286047001.1,N
1504092715.9,286047001.1,N
1504092735.7,286047002.3,N
1504092755.6,286047001.6,N
1504092775.4,286047002.7,N
1504092795.2,286047001.9,N
1504092815.1,286047004.4,N
1504092816.0,286047004.4,N
1504092835.8,286047004.3,N
1504092855.6,286047001.1,N
1504092875.5,286047000.8,N
1504092895.3,286046995.9,N
1504092915.1,286046992.6,N
1504092935.9,286046987.8,N
1504092955.7,286046988.4,N
1504092975.5,286046987.2,N
1504092995.3,286046989.3,N
1504093015.2,286046987.2,N
1504093035.0,286046988.2,N
1504093035.9,286046988.2,N
1504093055.7,286046984.4,N
1504093075.6,286046982.1,N
1504093095.4,286046986.8,N
1504093115.2,286046983.5,N
1504093135.1,286046985.1,N
1504093136.0,286046985.1,N
1504093155.8,286046982.8,N
1504093175.6,286046983.6,N
1504093195.5,286046983.2,N
1504093215.3,286046984.9,N
1504093235.1,286046984.3,N
1504093255.9,286046981.0,N
1504093275.7,286046979.1,N
1504093295.5,286046981.1,N
1504093315.4,286046984.3,N
1504093335.2,286046983.5,N
1504093355.0,286046986.6,N
1504093355.9,286046986.6,N
1504093375.8,286046985.3,N
1504093395.6,286046985.4,N
1504093415.4,286046987.6,N
1504093435.3,286046985.6,P
1504093455.1,286047004.4,P
1504093456.0,286047004.4,N
1504093475.8,286047003.3,N
1504093495.7,286047003.6,N
1504093515.5,286047003.0,N
1504093535.3,286047005.7,N
1504093555.1,286047001.4,N
1504093575.9,286047002.1,N
1504093595.7,286047000.1,N
1504093615.5,286046998.6,N
1504093635.4,286046996.6,N
1504093655.2,286046998.7,N
1504093675.0,286046999.9,N
1504093675.9,286046999.9,N
1504093695.8,286046998.4,N
1504093715.6,286046996.5,N
1504093735.4,286046999.5,N
1504093755.3,286047001.0,N
1504093775.1,286046998.5,N
1504093776.0,286046998.5,N
1504093795.8,286046998.2,N
1504093815.7,286046999.3,N
1504093835.5,286046993.3,N
1504093855.3,286046995.4,N
1504093875.2,286046995.0,N
1504093895.9,286046999.1,N
1504093915.7,286047002.4,N
1504093935.5,286047000.4,N
1504093955.4,286046998.9,N
1504093975.2,286046996.2,N
1504093995.0,286046995.7,N
1504093995.9,286046995.7,N
1504094015.8,286046997.6,N
1504094035.6,286046997.6,N
1504094055.4,286046997.7,N
1504094075.3,286046995.7,N
1504094095.1,286046997.2,N
1504094096.0,286046997.2,N
1504094115.8,286046997.5,N
1504094135.7,286046997.7,N
1504094155.5,286046999.1,N
1504094175.3,286046996.1,N
1504094195.2,286046997.7,N
1504094215.9,286046999.1,N
1504094235.7,286046997.8,N
1504094255.6,286046997.3,N
1504094275.4,286046997.6,N
1504094295.2,286046997.2,N
1504094315.1,286046993.3,P
1504094316.0,286046993.3,P
1504094335.8,286046999.6,N
1504094355.6,286046998.7,N
1504094375.5,286046997.1,N
1504094395.3,286046997.4,N
